"Pseudo-MPEC" for P10IjRY

Created 2018 Jul 17 20:18:08 UT using Find_Orb

Click here for an explanation of pseudo-MPECs

 
 Astrometry: 
     P10IjRY  C2018 07 10N_Astrometryu'VT$H6mIN!o`=yl)VhR,KD(=^nlwiM-CQ/3EeQHF51
     P10IjRY  C2018 07 109,qJpl-[`2`*n$BJtredacted;,w'))7=(VHPp/Gp3q@xwd8d3-OF51
     P10IjRY  C2018 07 10f'5=bsSj(0lX!YPhQl/)jim(TZx;0By5see^r68bUQ(0dXy;JbxnF51
     P10IjRY  C2018 07 10QFP+(jFBj6[bLM%jO4u1D`iCUm_T7Fv)wq)s;?T#k'\60p1NEOCPF51

Station data:
(F51) Pan-STARRS 1, Haleakala  (N20.707235 W156.255910)  US/Hawaii.
   Observers N. Primak, A. Schultz, S. Watters, J. Thiel, T. Goggia. Measurer
   PS1 Science Consortium. 1.8-m Ritchey-Chrétien + CCD.

Orbital elements:  P10IjRY
   Perihelion 2018 Jun 7.799091 +/- 36.2 TT = 19:10:41 (JD 2458277.299091)
Epoch 2018 Jul 10.0 TT = JDT 2458309.5   Earth MOID: 0.2522   Ma: 0.0247
M  10.37675 +/- 30                  (J2000 ecliptic)          AutoNEOCP
n   0.32225050 +/- 0.351            Peri.   89.73918 +/- 110
a   2.10704421 +/- 1.56             Node   163.30360 +/- 59
e   0.4089158 +/- 0.252             Incl.    5.17575 +/- 13
P   3.06                   H 23.1   G  0.15   U 12.0  SR
q 1.24544041 +/- 0.409    Q 2.96864800 +/- 31.7
From 4 observations 2018 July 10 (49.0 min); mean residual 0".18
Residuals in arcseconds: 
180710 F51  .18-  .00     180710 F51  .22-  .08-    
180710 F51  .40+  .03+    180710 F51  .06+  .02+    

Ephemerides (geocentric):
Date (UTC) HH   RA              Dec         delta   r     elong  mag " sig PA
---- -- -- --  -------------   -----------  ------ ------ -----  --- ---- ---
2018 07 17 20  17 11 05.969   -06 33 44.32  .35330 1.3053 139.5 22.7  25d   1
2018 07 17 21  17 11 11.146   -06 34 37.62  .35348 1.3054 139.5 22.7  25d   0
2018 07 17 22  17 11 16.323   -06 35 30.90  .35366 1.3055 139.5 22.7  25d   0
2018 07 17 23  17 11 21.502   -06 36 24.17  .35384 1.3056 139.5 22.7  25d   0
2018 07 18 00  17 11 26.681   -06 37 17.42  .35402 1.3058 139.4 22.7  25d   0
2018 07 18 01  17 11 31.862   -06 38 10.66  .35420 1.3059 139.4 22.7  25d   0
2018 07 18 02  17 11 37.045   -06 39 03.88  .35437 1.3060 139.4 22.7  26d   0
2018 07 18 03  17 11 42.228   -06 39 57.09  .35455 1.3061 139.4 22.7  26d   0
2018 07 18 04  17 11 47.413   -06 40 50.28  .35473 1.3062 139.4 22.7  26d   0
2018 07 18 05  17 11 52.599   -06 41 43.46  .35491 1.3064 139.4 22.7  26d   0
2018 07 18 06  17 11 57.787   -06 42 36.62  .35509 1.3065 139.4 22.7  26d   0
2018 07 18 07  17 12 02.975   -06 43 29.77  .35527 1.3066 139.4 22.7  26d   0
2018 07 18 08  17 12 08.165   -06 44 22.90  .35545 1.3067 139.4 22.7  26d   0
2018 07 18 09  17 12 13.356   -06 45 16.01  .35563 1.3068 139.4 22.7  26d   0
2018 07 18 10  17 12 18.548   -06 46 09.11  .35581 1.3070 139.3 22.7  26d   0
2018 07 18 11  17 12 23.741   -06 47 02.19  .35600 1.3071 139.3 22.7  26d 179
2018 07 18 12  17 12 28.936   -06 47 55.26  .35618 1.3072 139.3 22.7  26d 179
2018 07 18 13  17 12 34.132   -06 48 48.31  .35636 1.3073 139.3 22.7  26d 179
2018 07 18 14  17 12 39.329   -06 49 41.35  .35654 1.3074 139.3 22.7  26d 179
2018 07 18 15  17 12 44.527   -06 50 34.37  .35672 1.3076 139.3 22.7  27d 179
2018 07 18 16  17 12 49.727   -06 51 27.37  .35690 1.3077 139.3 22.8  27d 179
2018 07 18 17  17 12 54.927   -06 52 20.36  .35709 1.3078 139.3 22.8  27d 179
2018 07 18 18  17 13 00.129   -06 53 13.33  .35727 1.3079 139.3 22.8  27d 179
2018 07 18 19  17 13 05.332   -06 54 06.28  .35745 1.3081 139.3 22.8  27d 179
2018 07 18 20  17 13 10.537   -06 54 59.22  .35763 1.3082 139.2 22.8  27d 179
2018 07 18 21  17 13 15.742   -06 55 52.14  .35782 1.3083 139.2 22.8  27d 179
2018 07 18 22  17 13 20.949   -06 56 45.04  .35800 1.3084 139.2 22.8  27d 179
2018 07 18 23  17 13 26.157   -06 57 37.93  .35818 1.3085 139.2 22.8  27d 179
2018 07 19 00  17 13 31.366   -06 58 30.80  .35837 1.3087 139.2 22.8  27d 179
2018 07 19 01  17 13 36.576   -06 59 23.66  .35855 1.3088 139.2 22.8  27d 179
2018 07 19 02  17 13 41.787   -07 00 16.49  .35873 1.3089 139.2 22.8  27d 179
2018 07 19 03  17 13 47.000   -07 01 09.31  .35892 1.3090 139.2 22.8  27d 179
2018 07 19 04  17 13 52.214   -07 02 02.11  .35910 1.3092 139.2 22.8  27d 179
2018 07 19 05  17 13 57.429   -07 02 54.90  .35929 1.3093 139.1 22.8  27d 179
2018 07 19 06  17 14 02.645   -07 03 47.67  .35947 1.3094 139.1 22.8  27d 179
2018 07 19 07  17 14 07.862   -07 04 40.42  .35965 1.3095 139.1 22.8  27d 179
2018 07 19 08  17 14 13.081   -07 05 33.15  .35984 1.3096 139.1 22.8  27d 179
2018 07 19 09  17 14 18.300   -07 06 25.86  .36002 1.3098 139.1 22.8  27d 179
2018 07 19 10  17 14 23.521   -07 07 18.56  .36021 1.3099 139.1 22.8  27d 179
2018 07 19 11  17 14 28.743   -07 08 11.24  .36040 1.3100 139.1 22.8  27d 179
2018 07 19 12  17 14 33.966   -07 09 03.90  .36058 1.3101 139.1 22.8  27d 179
2018 07 19 13  17 14 39.191   -07 09 56.54  .36077 1.3103 139.1 22.8  27d 179
2018 07 19 14  17 14 44.416   -07 10 49.17  .36095 1.3104 139.1 22.8  27d 179
2018 07 19 15  17 14 49.643   -07 11 41.78  .36114 1.3105 139.0 22.8  27d 179
2018 07 19 16  17 14 54.870   -07 12 34.37  .36133 1.3106 139.0 22.8  27d 179
2018 07 19 17  17 15 00.099   -07 13 26.94  .36151 1.3108 139.0 22.8  27d 179
2018 07 19 18  17 15 05.329   -07 14 19.49  .36170 1.3109 139.0 22.8  27d 179
2018 07 19 19  17 15 10.561   -07 15 12.03  .36189 1.3110 139.0 22.8  28d 179